Flagstaff, AZ

8:55 PM MST on February 13, 2016 (GMT -0700)
Flagstaff Pulliam

Weather History for KFLG - March, 2011

Change the Weather History Date:

Sunday, March 13, 2011

  Actual Average Record
Temperature  
Mean Temperature 43 °F 36 °F  
Max Temperature 60 °F 50 °F 70 °F (2007)
Min Temperature 25 °F 23 °F -9 °F (1962)
Degree Days  
Heating Degree Days 22 28  
Month to date heating degree days 355 384  
Since 1 July heating degree days 4888 5223  
Cooling Degree Days 0 0  
Month to date cooling degree days 0 0  
Year to date cooling degree days 0 0  
Moisture  
Dew Point 20 °F    
Average Humidity 49    
Maximum Humidity 81    
Minimum Humidity 17    
Precipitation  
Precipitation 0.00 in 0.08 in 1.27 in (1905)
Month to date precipitation 0.13 0.98  
Year to date precipitation 3.44 5.19  
Snow  
Snow 0.00 in 0.80 in 7.10 in (1990)
Month to date snowfall T 9.8  
Since 1 July snowfall 64.0 83.0  
Snow Depth 0.00 in    
Sea Level Pressure  
Sea Level Pressure 30.14 in    
Wind  
Wind Speed 3 mph (ENE)    
Max Wind Speed 15 mph    
Max Gust Speed 21 mph    
Visibility 10 miles    
Events      
T = Trace of Precipitation, MM = Missing Value Source: NWS Daily Summary

Daily Weather History Graph

Daily Weather History Graph

Search for Another Location

Airport or City:

Trip Planner

Search our weather history database for the weather conditions in past years. The results will help you decide how hot, cold, wet, or windy it might be!

Date:

Astronomy

Mar. 13, 2011 Rise Set
Actual Time 6:40 AM MST 6:32 PM MST
Civil Twilight 6:15 AM MST 6:57 PM MST
Nautical Twilight 5:45 AM MST 7:27 PM MST
Astronomical Twilight 5:16 AM MST 7:56 PM MST
Moon 12:04 PM MST (3/13) 2:02 AM MST (3/13)
Length of Visible Light 12h 42m
Length of Day
11h 52m
First Quarter, 58% of the Moon is Illuminated
Mar 13
First Quarter
Mar 19
Full
Mar 26
Last Quarter
Apr 3
New
Apr 11
First Quarter

Hourly Weather History & Observations

Time (MST) Temp. Windchill Dew Point Humidity Pressure Visibility Wind Dir Wind Speed Gust Speed Precip Events Conditions
12:57 AM 33.1 °F - 21.0 °F 61% 30.04 in 10.0 mi Calm Calm - N/A   Clear
1:57 AM 30.0 °F - 19.9 °F 66% 30.06 in 10.0 mi Calm Calm - N/A   Clear
2:57 AM 27.0 °F - 19.9 °F 75% 30.05 in 10.0 mi Calm Calm - N/A   Clear
3:57 AM 30.9 °F 25.2 °F 21.0 °F 67% 30.04 in 10.0 mi WSW 5.8 mph - N/A   Clear
4:57 AM 27.0 °F - 21.0 °F 78% 30.08 in 10.0 mi Calm Calm - N/A   Clear
5:57 AM 27.0 °F - 19.9 °F 75% 30.12 in 10.0 mi Calm Calm - N/A   Clear
6:57 AM 25.0 °F - 19.9 °F 81% 30.18 in 10.0 mi Calm Calm - N/A   Clear
7:57 AM 35.1 °F 32.2 °F 23.0 °F 61% 30.17 in 10.0 mi East 3.5 mph - N/A   Clear
8:57 AM 46.0 °F 41.9 °F 25.0 °F 44% 30.16 in 10.0 mi ENE 8.1 mph - N/A   Clear
9:57 AM 50.0 °F - 24.1 °F 36% 30.15 in 10.0 mi ENE 10.4 mph - N/A   Clear
10:57 AM 52.0 °F - 21.9 °F 31% 30.17 in 10.0 mi East 4.6 mph - N/A   Clear
11:57 AM 55.9 °F - 21.9 °F 27% 30.16 in 10.0 mi NNE 9.2 mph 17.3 mph N/A   Clear
12:57 PM 55.9 °F - 21.0 °F 26% 30.14 in 10.0 mi ENE 10.4 mph - N/A   Clear
1:57 PM 57.9 °F - 17.1 °F 20% 30.13 in 10.0 mi North 6.9 mph - N/A   Clear
2:57 PM 57.9 °F - 17.1 °F 20% 30.13 in 10.0 mi ESE 6.9 mph - N/A   Clear
3:57 PM 57.9 °F - 14.0 °F 18% 30.12 in 10.0 mi SW 6.9 mph - N/A   Clear
4:57 PM 57.9 °F - 14.0 °F 18% 30.14 in 10.0 mi Calm Calm - N/A   Clear
5:57 PM 55.9 °F - 15.1 °F 20% 30.15 in 10.0 mi SE 4.6 mph - N/A   Clear
6:57 PM 48.0 °F - 19.9 °F 33% 30.22 in 10.0 mi Calm Calm - N/A   Clear
7:57 PM 41.0 °F - 18.0 °F 40% 30.22 in 10.0 mi Calm Calm - N/A   Clear
8:57 PM 37.9 °F - 19.9 °F 48% 30.19 in 10.0 mi Calm Calm - N/A   Clear
9:57 PM 35.1 °F - 19.9 °F 54% 30.20 in 10.0 mi Calm Calm - N/A   Clear
10:57 PM 32.0 °F - 19.9 °F 61% 30.20 in 10.0 mi Calm Calm - N/A   Clear
11:57 PM 30.9 °F - 19.9 °F 64% 30.19 in 10.0 mi Calm Calm - N/A   Clear